User: anonymous   Login
Location: Cicognara
(44.9500°N, 10.4667°E)
Time: 16:42:20
(UTC+00:00)
Language:

Cosmos 1110 Rocket - Orbit

View from above orbital plane
View from above orbital plane
View from above satellite
View from above satellite

Ground track
Ground track

The orbit data is extracted from the following two-line orbital elements,

1 11427U 79060B   21258.88234486 -.00000010  00000-0  56159-5 0  9991
2 11427  74.0174  48.7026 0019980 179.6561 180.4610 14.37470421210588
Epoch (UTC): 15 September 2021 21:10:34
Eccentricity: 0.0019980
inclination: 74.0174°
perigee height: 752 km
apogee height: 781 km
right ascension of ascending node: 48.7026°
argument of perigee: 179.6561°
revolutions per day: 14.37470421
mean anomaly at epoch: 180.4610°
orbit number at epoch: 21058

The dashed part of the orbit path shows where the satellite is in the earth's shadow,  

DLR